DELTA 1 DEB, 7055

Orbit data source: Space-Track

DELTA 1 DEB, 7055 is space debris in LEO originally from a launch on Tue, 06 Nov 1973 UTC launched from the Air Force Western Test Range (AFWTR). Debris objects in space refer to the collection of defunct objects orbiting the Earth. Examples of debris include non-operational satellites, rocket bodies, and fragments generated from explosions, collisions, or faulty payload assembly.

Loading next visibility...
Identifier
7055, 1973-086AX
Orbit
LEO
Country
Flag of USUS
Related business
Manufacturer
Unknown
Mission
Spacecraft
Bus & Motor
Unknown
Mass
Unknown
Launch date (UTC)
1973-11-06 (52 years ago)
Launch vehicle
Unknown
Launch site
Air Force Western Test Range (AFWTR)
Object type
Payload
Rocket body
Debris
Shape & HBR
Unknown shape, 0.1 m
Radar Cross Section
Medium (>0.1 m² and <1 m²)

Expand to show TLE details & history
Last TLE update: 20 hours ago

TLE from 20 hours ago
0 DELTA 1 DEB
1 07055U 73086AX  25348.80290681 -.00000044  00000-0 -62054-4 0  9998
2 07055 102.6885  71.7656 0342917 112.0851   6.8965 11.84179801251872
Epoch: 2025-12-14T19:16Z
TLE epoch observation values (Epoch: 2025-12-14T19:16:11.148Z)
Latitude
58.23138°
Longitude
-99.78198°
Altitude
1,485.355 km
Speed
7.247 km/s
True Right ascension
18h 11m 54s
True Declination
58° 05' 29"
Sunlit
Object was in daylight at epoch
Visualization orbit readout
Latitude
Unknown
Longitude
Unknown
Altitude
Unknown
Speed
Unknown
Apparent Right ascension
Unknown
Apparent Declination
Unknown
Sunlit
N/A
Visualization observer readout
Local Sidereal Time
13:23:51
Azimuth
Unknown
Elevation
Unknown
Doppler factor
Unknown
Orbital elements
Apogee altitude
2,028.896 km
Perigee altitude
1,471.43 km
Semi-major axis
8,128.3 km
Eccentricity
0.03429
Inclination
102.6885°
RAAN
71.7656°
Arg. of periapsis
112.0851°
True anomaly
7.38927°
Mean anomaly
6.8965°
Eccentric anomaly
7.14073°
Mean motion
2.96172 °/min
Orbital period
121.55 mins
BSTAR
-0.000062054
Loading maneuver chart data...
Computing Atmospheric mass density...
Loading historical data...
Loading historical data...
Loading historical data...
Loading historical data...
Loading historical data...
Loading historical data...
Loading historical data...

Documentation

Showing up to 5 results
|